Ardmore Downtown, OK

6:10 PM CST on February 18, 2018 (GMT -0600)
Ardmore Downtown

Weather History for K1F0 - January, 2013

Change the Weather History Date:

Thursday, January 10, 2013

  Actual Average (KADM) Record (KADM)
Temperature  
Mean Temperature 52 °F -  
Max Temperature 57 °F 49 °F 73 °F (2005)
Min Temperature 48 °F 32 °F 21 °F (2015)
Degree Days  
Heating Degree Days 12    
Growing Degree Days 2 (Base 50)    
Moisture  
Dew Point 49 °F    
Average Humidity 88    
Maximum Humidity 100    
Minimum Humidity 77    
Precipitation  
Precipitation 0.11 in - - ()
Sea Level Pressure  
Sea Level Pressure 29.91 in    
Wind  
Wind Speed 7 mph (South)    
Max Wind Speed 13 mph    
Max Gust Speed 18 mph    
Visibility 8 miles    
Events Fog , Rain    
Averages and records for this station are not official NWS values.
T = Trace of Precipitation, MM = Missing Value Source: NWS Daily Summary

Daily Weather History Graph

Daily Weather History Graph

Search for Another Location

Airport or City:

Trip Planner

Search our weather history database for the weather conditions in past years. The results will help you decide how hot, cold, wet, or windy it might be!

Date:

Astronomy

Jan. 10, 2013 Rise Set
Actual Time 7:34 AM CST 5:37 PM CST
Civil Twilight 7:07 AM CST 6:05 PM CST
Nautical Twilight 6:36 AM CST 6:36 PM CST
Astronomical Twilight 6:06 AM CST 7:06 PM CST
Moon 6:16 AM CST (1/10) 4:46 PM CST (1/10)
Length of Visible Light 10h 57m
Length of Day
10h 02m
Waning Crescent, 2% of the Moon is Illuminated
Jan 10
Waning Crescent
Jan 11
New
Jan 18
First Quarter
Jan 26
Full
Feb 3
Last Quarter

Hourly Weather History & Observations

Time (CST) Temp. Dew Point Humidity Pressure Visibility Wind Dir Wind Speed Gust Speed Precip Events Conditions
12:15 AM 53.6 °F 51.8 °F 94% 30.05 in 7.0 mi ESE 9.2 mph - 0.01 in Rain Rain
2:15 AM 53.6 °F 51.8 °F 94% 30.00 in 10.0 mi ESE 9.2 mph - 0.02 in   Overcast
2:35 AM 53.6 °F 51.8 °F 94% 29.99 in 4.0 mi ESE 9.2 mph - 0.02 in Rain Rain
2:55 AM 53.6 °F 51.8 °F 94% 29.98 in 4.0 mi ESE 9.2 mph - 0.03 in   Light Drizzle
3:15 AM 53.6 °F 51.8 °F 94% 29.97 in 7.0 mi SE 9.2 mph - N/A   Overcast
3:35 AM 53.6 °F 51.8 °F 94% 29.97 in 4.0 mi ESE 9.2 mph - N/A   Overcast
3:55 AM 53.6 °F 51.8 °F 94% 29.96 in 4.0 mi SE 9.2 mph - N/A   Light Drizzle
4:15 AM 53.6 °F 51.8 °F 94% 29.95 in 5.0 mi ESE 11.5 mph 17.3 mph N/A   Overcast
4:35 AM 53.6 °F 51.8 °F 94% 29.94 in 4.0 mi ESE 10.4 mph - 0.01 in   Light Drizzle
4:55 AM 53.6 °F 51.8 °F 94% 29.93 in 5.0 mi SE 9.2 mph - 0.01 in Rain Rain
5:15 AM 53.6 °F 51.8 °F 94% 29.92 in 4.0 mi SE 6.9 mph - N/A   Overcast
5:35 AM 53.6 °F 51.8 °F 94% 29.92 in 4.0 mi SE 5.8 mph - 0.01 in   Light Drizzle
5:55 AM 53.6 °F 51.8 °F 94% 29.92 in 4.0 mi SE 4.6 mph - 0.01 in   Light Drizzle
6:15 AM 53.6 °F 51.8 °F 94% 29.91 in 5.0 mi Calm Calm - N/A   Overcast
6:35 AM 53.6 °F 51.8 °F 94% 29.92 in 3.0 mi ESE 3.5 mph - 0.01 in Rain Rain
6:55 AM 53.6 °F 51.8 °F 94% 29.93 in 2.5 mi SE 3.5 mph - 0.01 in   Drizzle
7:15 AM 53.6 °F 51.8 °F 94% 29.92 in 7.0 mi SSE 4.6 mph - 0.01 in   Overcast
7:35 AM 53.6 °F 51.8 °F 94% 29.92 in 2.0 mi SE 4.6 mph - 0.01 in   Overcast
7:55 AM 53.6 °F 51.8 °F 94% 29.92 in 2.5 mi SSE 5.8 mph - 0.01 in   Overcast
8:15 AM 53.6 °F 51.8 °F 94% 29.92 in 1.8 mi SSE 5.8 mph - N/A   Overcast
8:35 AM 53.6 °F 51.8 °F 94% 29.92 in 0.5 mi South 4.6 mph - N/A Fog Fog
8:55 AM 53.6 °F 53.6 °F 100% 29.91 in 5.0 mi South 4.6 mph - N/A   Overcast
9:15 AM 55.4 °F 53.6 °F 94% 29.91 in 10.0 mi South 5.8 mph - N/A   Overcast
9:55 AM 53.6 °F 53.6 °F 100% 29.91 in 7.0 mi SSW 4.6 mph - N/A   Mostly Cloudy
10:15 AM 55.4 °F 53.6 °F 94% 29.92 in 10.0 mi South 5.8 mph - N/A   Overcast
10:35 AM 55.4 °F 53.6 °F 94% 29.92 in 10.0 mi South 6.9 mph - N/A   Overcast
10:55 AM 55.4 °F 53.6 °F 94% 29.91 in 10.0 mi South 9.2 mph - N/A   Overcast
11:15 AM 55.4 °F 51.8 °F 88% 29.91 in 10.0 mi South 9.2 mph - N/A   Overcast
11:35 AM 55.4 °F 51.8 °F 88% 29.89 in 10.0 mi South 9.2 mph - N/A   Overcast
11:55 AM 57.2 °F 51.8 °F 82% 29.88 in 10.0 mi SW 11.5 mph 16.1 mph N/A   Overcast
12:15 PM 53.6 °F 50.0 °F 88% 29.87 in 10.0 mi SW 12.7 mph 17.3 mph N/A   Overcast
12:35 PM 53.6 °F 50.0 °F 88% 29.87 in 10.0 mi SSW 12.7 mph 18.4 mph N/A   Overcast
12:55 PM 51.8 °F 46.4 °F 82% 29.87 in 10.0 mi SSW 10.4 mph 18.4 mph N/A   Overcast
1:15 PM 53.6 °F 46.4 °F 77% 29.87 in 10.0 mi SSW 8.1 mph - N/A   Overcast
1:35 PM 53.6 °F 46.4 °F 77% 29.87 in 10.0 mi SSW 8.1 mph - N/A   Overcast
1:55 PM 53.6 °F 46.4 °F 77% 29.87 in 10.0 mi SSW 9.2 mph - N/A   Overcast
2:15 PM 51.8 °F 46.4 °F 82% 29.87 in 10.0 mi SW 6.9 mph - N/A Rain Light Rain
2:35 PM 51.8 °F 46.4 °F 82% 29.87 in 10.0 mi SW 6.9 mph - N/A   Overcast
2:55 PM 51.8 °F 46.4 °F 82% 29.87 in 4.0 mi SW 10.4 mph - 0.03 in Rain Rain
3:15 PM 51.8 °F 48.2 °F 88% 29.89 in 10.0 mi SW 5.8 mph - 0.01 in   Overcast
3:35 PM 50.0 °F 48.2 °F 94% 29.89 in 10.0 mi SW 4.6 mph - 0.01 in   Overcast
3:55 PM 51.8 °F 48.2 °F 88% 29.89 in 10.0 mi SW 3.5 mph - 0.01 in   Overcast
4:15 PM 51.8 °F 48.2 °F 88% 29.89 in 10.0 mi SSW 4.6 mph - N/A   Overcast
4:35 PM 51.8 °F 48.2 °F 88% 29.90 in 10.0 mi SSW 4.6 mph - N/A   Overcast
4:55 PM 51.8 °F 46.4 °F 82% 29.89 in 10.0 mi SSW 5.8 mph - N/A   Overcast
5:15 PM 51.8 °F 46.4 °F 82% 29.89 in 10.0 mi SSW 5.8 mph - N/A   Overcast
5:35 PM 51.8 °F 46.4 °F 82% 29.90 in 10.0 mi SW 5.8 mph - N/A   Overcast
5:55 PM 51.8 °F 46.4 °F 82% 29.91 in 10.0 mi SW 9.2 mph - N/A   Overcast
6:15 PM 51.8 °F 46.4 °F 82% 29.91 in 10.0 mi SW 6.9 mph - N/A   Overcast
6:35 PM 51.8 °F 46.4 °F 82% 29.91 in 10.0 mi SW 5.8 mph - N/A   Overcast
6:55 PM 51.8 °F 46.4 °F 82% 29.90 in 10.0 mi SW 5.8 mph - N/A   Overcast
7:15 PM 51.8 °F 46.4 °F 82% 29.91 in 10.0 mi SSW 6.9 mph - N/A   Overcast
7:35 PM 51.8 °F 46.4 °F 82% 29.91 in 10.0 mi SSW 4.6 mph - N/A   Overcast
7:55 PM 51.8 °F 46.4 °F 82% 29.91 in 10.0 mi SSW 4.6 mph - N/A   Overcast
8:15 PM 51.8 °F 46.4 °F 82% 29.92 in 10.0 mi SSW 5.8 mph - N/A   Overcast
8:35 PM 51.8 °F 46.4 °F 82% 29.92 in 10.0 mi SSW 4.6 mph - N/A   Overcast
8:55 PM 50.0 °F 46.4 °F 87% 29.91 in 10.0 mi South 5.8 mph - N/A   Overcast
9:15 PM 50.0 °F 44.6 °F 82% 29.91 in 10.0 mi SSW 5.8 mph - N/A   Overcast
9:35 PM 50.0 °F 44.6 °F 82% 29.91 in 10.0 mi SSW 5.8 mph - N/A   Overcast
10:15 PM 50.0 °F 44.6 °F 82% 29.90 in 10.0 mi SSW 3.5 mph - N/A   Scattered Clouds
10:35 PM 48.2 °F 44.6 °F 87% 29.92 in 10.0 mi SSW 3.5 mph - N/A   Clear
11:35 PM 48.2 °F 44.6 °F 87% 29.92 in 10.0 mi SSW 5.8 mph - N/A   Clear
11:55 PM 48.2 °F 44.6 °F 87% 29.92 in 10.0 mi SSW 6.9 mph - N/A   Clear